TimeEDT,TemperatureF,Dew PointF,Humidity,Sea Level PressureIn,VisibilityMPH,Wind Direction,Wind SpeedMPH,Gust SpeedMPH,PrecipitationIn,Events,Conditions,WindDirDegrees,DateUTC
12:15 AM,37.0,29.3,74,29.70,10.0,West,13.8,-,N/A,,Overcast,260,2014-03-15 04:15:00
12:35 AM,37.0,29.3,74,29.71,10.0,West,12.7,21.9,N/A,,Overcast,270,2014-03-15 04:35:00
12:54 AM,37.0,29.3,74,29.71,10.0,West,12.7,19.6,N/A,,Overcast,270,2014-03-15 04:54:00
1:15 AM,36.9,29.3,74,29.71,10.0,WSW,12.7,21.9,N/A,,Overcast,250,2014-03-15 05:15:00
1:35 AM,36.7,29.5,75,29.71,10.0,West,12.7,18.4,N/A,,Overcast,260,2014-03-15 05:35:00
1:54 AM,36.5,29.5,76,29.71,10.0,West,11.5,17.3,N/A,,Overcast,260,2014-03-15 05:54:00
2:15 AM,36.1,29.3,76,29.71,10.0,WSW,10.4,-,N/A,,Mostly Cloudy,250,2014-03-15 06:15:00
2:35 AM,35.6,30.2,81,29.71,10.0,WSW,11.5,-,N/A,,Scattered Clouds,250,2014-03-15 06:35:00
2:54 AM,35.2,30.6,83,29.72,10.0,WSW,10.4,-,N/A,,Clear,250,2014-03-15 06:54:00
3:15 AM,35.6,31.1,84,29.73,10.0,WSW,11.5,-,N/A,,Mostly Cloudy,250,2014-03-15 07:15:00
3:34 AM,35.6,31.1,84,29.73,10.0,WSW,12.7,18.4,N/A,,Overcast,250,2014-03-15 07:34:00
3:55 AM,35.6,31.1,84,29.73,10.0,WSW,13.8,-,N/A,,Overcast,250,2014-03-15 07:55:00
4:15 AM,35.2,31.1,85,29.73,10.0,WSW,11.5,-,N/A,,Overcast,250,2014-03-15 08:15:00
4:34 AM,35.1,30.9,85,29.73,10.0,West,11.5,18.4,N/A,,Overcast,260,2014-03-15 08:34:00
4:55 AM,35.1,30.7,84,29.74,10.0,WSW,10.4,17.3,N/A,,Overcast,250,2014-03-15 08:55:00
5:15 AM,35.1,30.6,84,29.74,10.0,WSW,12.7,18.4,N/A,,Overcast,250,2014-03-15 09:15:00
5:34 AM,35.1,30.2,82,29.75,10.0,West,11.5,-,N/A,,Overcast,260,2014-03-15 09:34:00
5:55 AM,35.2,30.2,82,29.77,10.0,West,12.7,-,N/A,,Overcast,270,2014-03-15 09:55:00
6:15 AM,35.2,29.8,81,29.78,10.0,West,15.0,19.6,N/A,,Overcast,270,2014-03-15 10:15:00
6:35 AM,35.1,29.5,80,29.79,10.0,West,13.8,21.9,N/A,,Overcast,270,2014-03-15 10:35:00
6:55 AM,35.1,29.3,80,29.79,10.0,West,13.8,18.4,N/A,,Overcast,270,2014-03-15 10:55:00
7:15 AM,35.1,29.7,81,29.80,10.0,West,10.4,-,N/A,,Overcast,280,2014-03-15 11:15:00
7:35 AM,35.1,29.8,81,29.82,10.0,West,12.7,-,N/A,,Overcast,280,2014-03-15 11:35:00
7:55 AM,34.7,29.8,82,29.83,10.0,WNW,15.0,19.6,N/A,,Overcast,300,2014-03-15 11:55:00
8:15 AM,33.8,28.2,80,29.85,10.0,NW,15.0,21.9,N/A,,Overcast,310,2014-03-15 12:15:00
8:35 AM,32.9,27.5,81,29.87,10.0,NW,16.1,23.0,N/A,,Overcast,320,2014-03-15 12:35:00
8:55 AM,32.5,25.7,76,29.88,10.0,NW,12.7,18.4,N/A,,Overcast,310,2014-03-15 12:55:00
9:15 AM,32.2,23.7,71,29.90,10.0,WNW,13.8,23.0,N/A,,Overcast,300,2014-03-15 13:15:00
9:35 AM,32.0,23.0,69,29.92,10.0,NW,16.1,-,N/A,,Overcast,310,2014-03-15 13:35:00
9:55 AM,32.0,23.0,69,29.93,10.0,NW,15.0,-,N/A,,Overcast,320,2014-03-15 13:55:00
10:15 AM,32.0,23.7,71,29.95,10.0,NNW,10.4,16.1,N/A,,Overcast,330,2014-03-15 14:15:00
10:35 AM,32.0,23.5,71,29.96,10.0,NW,13.8,21.9,N/A,,Overcast,320,2014-03-15 14:35:00
10:55 AM,31.5,22.1,68,29.98,10.0,NW,16.1,21.9,N/A,,Mostly Cloudy,320,2014-03-15 14:55:00
11:15 AM,31.1,21.2,67,29.99,10.0,NNW,12.7,18.4,N/A,,Scattered Clouds,340,2014-03-15 15:15:00
11:35 AM,31.6,21.0,65,30.00,10.0,NW,13.8,-,N/A,,Scattered Clouds,310,2014-03-15 15:35:00
11:55 AM,31.1,19.6,62,30.01,10.0,NW,12.7,18.4,N/A,,Clear,320,2014-03-15 15:55:00
12:14 PM,31.6,19.2,60,30.02,10.0,NW,15.0,21.9,N/A,,Clear,320,2014-03-15 16:14:00
12:35 PM,31.8,19.0,59,30.03,10.0,NW,10.4,17.3,N/A,,Clear,310,2014-03-15 16:35:00
12:55 PM,31.6,18.0,57,30.03,10.0,NW,13.8,19.6,N/A,,Clear,320,2014-03-15 16:55:00
1:14 PM,31.8,18.0,57,30.04,10.0,NW,9.2,21.9,N/A,,Scattered Clouds,320,2014-03-15 17:14:00
1:35 PM,31.6,17.2,55,30.05,10.0,NNW,9.2,-,N/A,,Scattered Clouds,340,2014-03-15 17:35:00
1:55 PM,31.8,17.8,56,30.05,10.0,NW,11.5,-,N/A,,Clear,310,2014-03-15 17:55:00
2:14 PM,32.0,18.9,58,30.05,10.0,WNW,9.2,16.1,N/A,,Clear,300,2014-03-15 18:14:00
2:35 PM,32.0,17.6,55,30.06,10.0,WNW,8.1,-,N/A,,Scattered Clouds,300,2014-03-15 18:35:00
2:55 PM,32.0,18.9,58,30.07,10.0,NW,11.5,20.7,N/A,,Scattered Clouds,320,2014-03-15 18:55:00
3:14 PM,32.2,18.0,56,30.06,10.0,NNW,8.1,17.3,N/A,,Scattered Clouds,340,2014-03-15 19:14:00
3:35 PM,32.4,19.2,58,30.07,10.0,NW,10.4,17.3,N/A,,Scattered Clouds,310,2014-03-15 19:35:00
3:55 PM,32.2,18.5,57,30.08,10.0,NW,13.8,-,N/A,,Scattered Clouds,320,2014-03-15 19:55:00
4:14 PM,32.0,18.7,58,30.08,10.0,NW,6.9,-,N/A,,Mostly Cloudy,320,2014-03-15 20:14:00
4:35 PM,33.3,19.0,56,30.09,10.0,NW,8.1,16.1,N/A,,Overcast,310,2014-03-15 20:35:00
4:55 PM,32.4,18.9,58,30.09,10.0,NW,6.9,-,N/A,,Mostly Cloudy,310,2014-03-15 20:55:00
5:14 PM,32.9,19.4,58,30.09,10.0,NW,9.2,-,N/A,,Scattered Clouds,310,2014-03-15 21:14:00
5:35 PM,32.2,18.5,57,30.09,10.0,NW,8.1,-,N/A,,Scattered Clouds,310,2014-03-15 21:35:00
5:55 PM,32.0,18.0,56,30.10,10.0,NNW,5.8,-,N/A,,Scattered Clouds,330,2014-03-15 21:55:00
6:14 PM,32.0,18.0,56,30.10,10.0,NW,9.2,-,N/A,,Scattered Clouds,320,2014-03-15 22:14:00
6:35 PM,32.0,18.3,57,30.11,10.0,NNW,4.6,-,N/A,,Mostly Cloudy,330,2014-03-15 22:35:00
6:55 PM,31.6,17.8,57,30.12,10.0,NNW,5.8,-,N/A,,Overcast,340,2014-03-15 22:55:00
7:14 PM,31.1,17.2,57,30.13,10.0,North,5.8,-,N/A,,Overcast,360,2014-03-15 23:14:00
7:35 PM,30.2,17.2,59,30.15,10.0,North,5.8,-,N/A,,Overcast,350,2014-03-15 23:35:00
7:55 PM,30.0,17.6,60,30.15,10.0,North,4.6,-,N/A,,Mostly Cloudy,350,2014-03-15 23:55:00
8:14 PM,29.8,17.4,60,30.16,10.0,NNW,5.8,-,N/A,,Mostly Cloudy,340,2014-03-16 00:14:00
8:35 PM,29.7,17.4,60,30.17,10.0,NNW,5.8,-,N/A,,Mostly Cloudy,340,2014-03-16 00:35:00
8:55 PM,29.3,16.5,59,30.17,10.0,NNW,8.1,-,N/A,,Overcast,340,2014-03-16 00:55:00
9:15 PM,28.8,15.1,57,30.18,10.0,North,10.4,18.4,N/A,,Overcast,350,2014-03-16 01:15:00
9:35 PM,28.0,15.1,58,30.19,10.0,North,5.8,-,N/A,,Overcast,350,2014-03-16 01:35:00
9:55 PM,27.5,13.1,55,30.20,10.0,North,8.1,16.1,N/A,,Mostly Cloudy,350,2014-03-16 01:55:00
10:15 PM,27.5,13.1,55,30.20,10.0,North,8.1,-,N/A,,Overcast,350,2014-03-16 02:15:00
10:35 PM,27.0,13.3,56,30.22,10.0,North,11.5,-,N/A,,Overcast,350,2014-03-16 02:35:00
10:55 PM,25.7,12.2,57,30.23,10.0,North,8.1,16.1,N/A,,Overcast,350,2014-03-16 02:55:00
11:15 PM,25.2,12.0,58,30.24,10.0,North,11.5,17.3,N/A,,Overcast,360,2014-03-16 03:15:00
11:35 PM,23.9,11.3,59,30.25,10.0,North,5.8,-,N/A,,Mostly Cloudy,360,2014-03-16 03:35:00
11:55 PM,22.5,10.6,60,30.26,10.0,North,10.4,-,N/A,,Scattered Clouds,360,2014-03-16 03:55:00